Carolina, PR

3:20 PM AST on December 07, 2016 (GMT -0400)
Luis Munoz Marin International

Weather History for TJSJ - July, 2012

Change the Weather History Date:

Monday, July 16, 2012

  Actual Average Record
Temperature  
Mean Temperature 85 °F 83 °F  
Max Temperature 89 °F 89 °F 93 °F (1995)
Min Temperature 80 °F 78 °F 70 °F (1952)
Degree Days  
Heating Degree Days 0 0  
Month to date heating degree days 0 0  
Since 1 June heating degree days 0 0  
Since 1 July heating degree days 0 0  
Cooling Degree Days 20 18  
Month to date cooling degree days 306 288  
Year to date cooling degree days 3113 3002  
Since 1 June cooling degree days 932 837  
Growing Degree Days 34 (Base 50)    
Moisture  
Dew Point 75 °F    
Average Humidity 72    
Maximum Humidity 85    
Minimum Humidity 59    
Precipitation  
Precipitation T in 0.17 in 1.73 in (2010)
Month to date precipitation 2.98 2.62  
Year to date precipitation 28.69 25.71  
Sea Level Pressure  
Sea Level Pressure 30.03 in    
Wind  
Wind Speed 12 mph (East)    
Max Wind Speed 23 mph    
Max Gust Speed 28 mph    
Visibility 9 miles    
Events      
T = Trace of Precipitation, MM = Missing Value Source: NWS Daily Summary

Daily Weather History Graph

Daily Weather History Graph

Search for Another Location

Airport or City:

Trip Planner

Search our weather history database for the weather conditions in past years. The results will help you decide how hot, cold, wet, or windy it might be!

Date:

Astronomy

Jul. 16, 2012 Rise Set
Actual Time 5:56 AM AST 7:03 PM AST
Civil Twilight 5:32 AM AST 7:27 PM AST
Nautical Twilight 5:04 AM AST 7:55 PM AST
Astronomical Twilight 4:35 AM AST 8:24 PM AST
Moon 3:38 AM AST (7/16) 5:05 PM AST (7/16)
Length of Visible Light 13h 54m
Length of Day
13h 07m
Waning Crescent, 6% of the Moon is Illuminated
Jul 16
Waning Crescent
Jul 19
New
Jul 26
First Quarter
Aug 1
Full
Aug 9
Last Quarter

Hourly Weather History & Observations

Time (AST) Temp. Heat Index Dew Point Humidity Pressure Visibility Wind Dir Wind Speed Gust Speed Precip Events Conditions
12:56 AM 81.0 °F 87.3 °F 75.9 °F 85% 30.04 in 10.0 mi East 6.9 mph - N/A   Scattered Clouds
1:56 AM 81.0 °F 86.7 °F 75.0 °F 82% 30.02 in 10.0 mi East 5.8 mph - N/A   Scattered Clouds
2:56 AM 81.0 °F 86.7 °F 75.0 °F 82% 30.01 in 10.0 mi ESE 4.6 mph - N/A   Scattered Clouds
3:56 AM 81.0 °F 86.7 °F 75.0 °F 82% 30.01 in 10.0 mi ESE 3.5 mph - N/A   Scattered Clouds
4:56 AM 81.0 °F 87.3 °F 75.9 °F 85% 30.01 in 10.0 mi East 5.8 mph - 0.00 in   Mostly Cloudy
5:56 AM 81.0 °F 86.7 °F 75.0 °F 82% 30.02 in 8.0 mi East 9.2 mph - N/A   Scattered Clouds
6:56 AM 81.0 °F 86.7 °F 75.0 °F 82% 30.04 in 8.0 mi East 8.1 mph - N/A   Scattered Clouds
7:56 AM 82.9 °F 90.2 °F 75.0 °F 77% 30.06 in 8.0 mi East 10.4 mph - N/A   Scattered Clouds
8:56 AM 86.0 °F 95.1 °F 75.0 °F 70% 30.06 in 9.0 mi East 15.0 mph - N/A   Scattered Clouds
9:56 AM 87.1 °F 95.4 °F 73.9 °F 65% 30.07 in 9.0 mi East 13.8 mph - N/A   Scattered Clouds
10:56 AM 88.0 °F 95.6 °F 73.0 °F 61% 30.06 in 9.0 mi East 16.1 mph 23.0 mph N/A   Scattered Clouds
11:56 AM 89.1 °F 99.1 °F 75.0 °F 63% 30.06 in 9.0 mi ENE 13.8 mph 23.0 mph N/A   Scattered Clouds
12:56 PM 89.1 °F 98.0 °F 73.9 °F 61% 30.05 in 9.0 mi ENE 16.1 mph - N/A   Scattered Clouds
1:56 PM 89.1 °F 99.1 °F 75.0 °F 63% 30.03 in 9.0 mi ENE 20.7 mph - N/A   Scattered Clouds
2:56 PM 88.0 °F 98.5 °F 75.9 °F 67% 30.01 in 9.0 mi ENE 20.7 mph - N/A   Scattered Clouds
3:56 PM 87.1 °F 97.3 °F 75.9 °F 69% 30.00 in 9.0 mi ENE 16.1 mph 24.2 mph N/A   Partly Cloudy
4:56 PM 87.1 °F 96.3 °F 75.0 °F 67% 29.99 in 9.0 mi ENE 18.4 mph 24.2 mph N/A   Partly Cloudy
5:56 PM 84.9 °F 92.1 °F 73.9 °F 69% 30.00 in 9.0 mi East 15.0 mph - N/A   Partly Cloudy
6:56 PM 84.0 °F 91.9 °F 75.0 °F 74% 30.01 in 9.0 mi ENE 12.7 mph - N/A   Partly Cloudy
7:56 PM 82.9 °F 90.2 °F 75.0 °F 77% 30.03 in 10.0 mi East 10.4 mph - N/A   Scattered Clouds
8:56 PM 82.9 °F 90.2 °F 75.0 °F 77% 30.04 in 10.0 mi ENE 10.4 mph - N/A   Scattered Clouds
9:56 PM 82.9 °F 90.2 °F 75.0 °F 77% 30.05 in 10.0 mi ENE 12.7 mph - N/A   Scattered Clouds
10:56 PM 82.0 °F 87.9 °F 73.9 °F 76% 30.05 in 10.0 mi East 9.2 mph - N/A   Scattered Clouds
11:56 PM 82.0 °F 87.9 °F 73.9 °F 76% 30.04 in 10.0 mi East 8.1 mph - N/A   Scattered Clouds